Location: NJAA Observatory
(40.6819°N, 74.8979°W)
Time: 22:41:19
(UTC-04:00)

Iridium 56 - Visible Passes

Search period start: 18 June 2018 00:00
Search period end: 28 June 2018 00:00
Orbit: 776 x 779 km, 86.4° (Epoch: 18 June)

Date Brightness Start Highest point End Pass type
(mag) Time Alt. Az. Time Alt. Az. Time Alt. Az.
18 Jun 6.9 21:01:53 10° SSW 21:06:48 42° W 21:11:45 10° NNW visible
20 Jun 8.3 21:37:36 10° WSW 21:40:49 16° WNW 21:44:03 10° NW visible
21 Jun 7.7 21:02:30 10° SW 21:07:00 29° W 21:11:32 10° NNW visible
23 Jun 8.8 21:39:42 10° W 21:41:08 11° WNW 21:42:37 10° NW visible
24 Jun 8.3 21:03:23 10° SW 21:07:14 21° WNW 21:11:06 10° NNW visible
27 Jun 8.6 21:04:46 10° WSW 21:07:32 14° WNW 21:10:19 10° NW visible
